Location: Barletta
(41.3170°N, 16.2830°E)
Time: 01:32:45
(UTC+02:00)

ISS - Pass Details

Date: 16 May 2021
Orbit: 417 x 422 km, 51.6° (Epoch: 14 June)

Event Time Altitude Azimuth Distance (km) Brightness Sun altitude
Rises 01:16:36 0° 305° (NW) 2,370 0.4 -29.3°
Reaches altitude 10° 01:19:23 10° 330° (NNW) 1,506 -0.4 -29.2°
Maximum altitude 01:21:26 15° 7° (N) 1,236 -0.6 -29.2°
Drops below altitude 10° 01:23:29 10° 45° (NE) 1,507 -0.3 -29.1°
Sets 01:26:16 0° 69° (ENE) 2,372 0.4 -29.0°
